WB8ZTP Weather Reports


time (UTC)temp
F
wind
direction
speed
knots
gust
knots
rain 1hr
in
rain 24hr
in
rain mn
in
humidity
%
barometer
mb
20260508114519 46 199 3.5 6.1 0.00 0.00 0.00 76 1016.5
20260508113018 45 228 2.6 6.1 0.00 0.00 0.00 77 1016.5
20260508111518 45 207 1.7 6.1 0.00 0.00 0.00 78 1016.2
20260508110019 44 183 1.7 5.2 0.00 0.00 0.00 79 1016.2
20260508104517 43 198 1.7 5.2 0.00 0.00 0.00 81 1016.0
20260508103014 43 177 0.0 3.5 0.00 0.00 0.00 82 1015.9
20260508101516 43 212 0.0 3.5 0.00 0.00 0.00 82 1015.9
20260508100018 43 196 0.0 1.7 0.00 0.00 0.00 81 1015.8
20260508094511 43 200 0.0 3.5 0.00 0.00 0.00 81 1015.8
20260508093010 43 194 0.0 3.5 0.00 0.00 0.00 81 1015.8
20260508091509 44 194 0.0 2.6 0.00 0.00 0.00 81 1016.0
20260508090008 43 182 0.9 3.5 0.00 0.00 0.00 82 1016.0
20260508084507 43 202 0.9 3.5 0.00 0.00 0.00 81 1015.9
20260508083006 43 232 0.0 3.5 0.00 0.00 0.00 81 1015.9
20260508081513 44 179 0.0 0.0 0.00 0.00 0.00 79 1016.0
20260508080005 46 179 0.0 0.0 0.00 0.00 0.00 76 1016.0
20260508074502 47 179 0.0 0.0 0.00 0.00 0.00 75 1016.1
20260508073002 47 179 0.0 0.0 0.00 0.00 0.00 75 1016.3
20260508071502 47 178 0.0 1.7 0.00 0.00 0.00 74 1016.6
20260508070104 48 198 0.0 2.6 0.00 0.00 0.00 75 1016.6
20260508064600 48 9 0.0 3.5 0.00 0.00 0.00 70 1016.7
20260508063106 47 210 0.0 3.5 0.00 0.00 0.00 72 1016.8
20260508061557 47 188 0.0 2.6 0.00 0.00 0.00 72 1016.6
20260508060057 47 187 0.0 2.6 0.00 0.00 0.00 73 1016.2
20260508054552 47 184 0.0 2.6 0.00 0.00 0.00 73 1016.4
20260508053051 46 198 0.0 2.6 0.00 0.00 0.00 74 1016.4
20260508051547 46 184 0.0 2.6 0.00 0.00 0.00 76 1016.5
20260508050043 45 204 0.0 4.3 0.00 0.00 0.00 82 1016.6
20260508044540 43 159 0.0 0.0 0.00 0.00 0.00 86 1016.7
20260508043040 43 283 0.0 0.0 0.00 0.00 0.00 86 1016.8
20260508041537 43 283 0.0 0.0 0.00 0.00 0.00 86 1016.6
20260508040042 43 283 0.0 0.0 0.00 0.00 0.00 86 1016.6
20260508034535 42 283 0.0 0.0 0.00 0.00 0.00 86 1016.7
20260508033034 42 283 0.0 0.0 0.00 0.00 0.00 85 1016.5
20260508031536 42 283 0.0 0.0 0.00 0.00 0.00 85 1016.6
20260508030034 42 283 0.0 0.0 0.00 0.00 0.00 84 1016.6
20260508024545 43 283 0.0 0.0 0.00 0.00 0.00 84 1016.6
20260508023033 43 283 0.0 0.0 0.00 0.00 0.00 84 1016.7
20260508021532 43 283 0.0 0.0 0.00 0.00 0.00 84 1016.5
20260508020031 43 283 0.0 0.0 0.00 0.00 0.00 82 1016.5
20260508014539 44 283 0.0 0.0 0.00 0.00 0.00 80 1016.5
20260508013030 45 283 0.0 0.0 0.00 0.00 0.00 78 1016.5
20260508011530 45 283 0.0 0.0 0.00 0.00 0.00 76 1016.4
20260508010035 47 283 0.0 0.0 0.00 0.00 0.00 75 1016.1
20260508004533 48 283 0.0 0.0 0.00 0.00 0.00 69 1016.1
20260508003030 50 283 0.0 0.0 0.00 0.00 0.00 64 1016.0
20260508001530 52 283 0.0 0.9 0.00 0.00 0.00 59 1015.9
20260508000027 53 321 0.0 0.9 0.00 0.00 0.00 56 1015.8
20260507234528 54 322 0.0 4.3 0.00 0.00 0.00 50 1015.8
20260507233038 55 5 1.7 4.3 0.00 0.00 0.00 47 1015.7
20260507231534 56 360 1.7 7.0 0.00 0.00 0.00 46 1015.7
20260507230027 56 319 4.3 7.8 0.00 0.00 0.00 45 1015.7
20260507224531 57 36 1.7 7.8 0.00 0.00 0.00 44 1015.8
20260507223025 57 288 2.6 8.7 0.00 0.00 0.00 44 1015.9
20260507221534 57 5 2.6 7.0 0.00 0.00 0.00 45 1015.9
20260507220023 57 266 2.6 11.3 0.00 0.00 0.00 48 1015.7
20260507214523 56 5 2.6 7.8 0.00 0.00 0.00 45 1015.7
20260507213024 58 211 3.5 7.0 0.00 0.00 0.00 46 1015.5
20260507211524 58 311 1.7 7.8 0.00 0.00 0.00 47 1015.5
20260507210022 57 252 1.7 7.8 0.00 0.00 0.00 50 1015.3
20260507204519 57 213 1.7 8.7 0.00 0.00 0.00 48 1015.2
20260507203023 57 348 3.5 10.4 0.00 0.00 0.00 48 1015.1
20260507201521 56 325 2.6 7.8 0.00 0.00 0.00 49 1015.3
20260507200016 58 225 3.5 10.4 0.00 0.00 0.00 47 1015.3
20260507194518 57 196 0.9 11.3 0.00 0.00 0.00 52 1015.2
20260507193014 56 11 2.6 9.6 0.00 0.00 0.00 52 1015.2
20260507191513 58 355 1.7 7.0 0.00 0.00 0.00 51 1015.5
20260507190011 57 290 2.6 8.7 0.00 0.00 0.00 52 1015.4
20260507184509 57 235 2.6 7.0 0.00 0.00 0.00 48 1015.4
20260507183011 57 240 3.5 7.8 0.00 0.00 0.00 51 1015.4
20260507181506 56 290 4.3 9.6 0.00 0.00 0.00 48 1015.5
20260507180004 56 225 2.6 7.8 0.00 0.00 0.00 52 1015.5
20260507174501 55 328 4.3 9.6 0.00 0.00 0.00 49 1015.7
20260507173104 55 287 4.3 9.6 0.00 0.00 0.00 48 1015.9
20260507171606 55 251 5.2 9.6 0.00 0.00 0.00 48 1016.0
20260507170104 54 262 3.5 9.6 0.00 0.00 0.00 52 1016.1
20260507164604 54 221 4.3 8.7 0.00 0.00 0.00 53 1016.1
20260507163057 54 317 2.6 11.3 0.00 0.00 0.00 52 1016.2
20260507161556 54 9 2.6 9.6 0.00 0.00 0.00 53 1016.2
20260507160055 53 267 1.7 9.6 0.00 0.00 0.00 54 1016.2
20260507154554 53 194 1.7 5.2 0.00 0.00 0.00 54 1016.1
20260507153050 53 200 2.6 6.1 0.00 0.00 0.00 57 1016.1
20260507151548 52 173 3.5 7.8 0.00 0.00 0.00 59 1016.0
20260507150045 51 223 3.5 7.0 0.00 0.00 0.00 60 1016.2
20260507144543 51 249 2.6 6.1 0.00 0.00 0.00 61 1016.2
20260507143041 50 355 1.7 5.2 0.00 0.00 0.00 62 1016.3
20260507141542 50 295 0.9 6.1 0.00 0.00 0.00 63 1016.3
20260507140037 50 229 1.7 5.2 0.00 0.00 0.00 68 1016.4
20260507134537 49 198 1.7 5.2 0.00 0.00 0.00 69 1016.5
20260507133037 48 26 0.9 5.2 0.00 0.00 0.00 72 1016.7
20260507131536 48 355 0.9 4.3 0.00 0.00 0.00 73 1016.7
20260507130027 47 264 0.9 4.3 0.00 0.00 0.00 75 1016.7
20260507124530 47 171 0.9 4.3 0.00 0.00 0.00 77 1016.7
20260507123021 46 236 0.9 4.3 0.00 0.00 0.00 79 1016.6
20260507121517 45 344 0.0 4.3 0.00 0.00 0.00 81 1016.6
20260507120017 44 260 0.0 4.3 0.00 0.00 0.00 85 1016.8